Huntsville, AL

8:08 AM CDT on March 23, 2017 (GMT -0500)
Huntsville International

Weather History for KHSV - February, 2013

Change the Weather History Date:

Monday, February 11, 2013

  Actual Average Record
Temperature  
Mean Temperature 53 °F 45 °F  
Max Temperature 61 °F 55 °F 76 °F (1938)
Min Temperature 45 °F 35 °F 7 °F (1912)
Degree Days  
Heating Degree Days 12 20  
Month to date heating degree days 209 235  
Since 1 July heating degree days 1915 2145  
Cooling Degree Days 0 0  
Month to date cooling degree days 0 0  
Year to date cooling degree days 6 0  
Growing Degree Days 2 (Base 50)    
Moisture  
Dew Point 48 °F    
Average Humidity 80    
Maximum Humidity 100    
Minimum Humidity 59    
Precipitation  
Precipitation 0.03 in 0.16 in 1.66 in (1903)
Month to date precipitation 1.10 1.84  
Year to date precipitation 9.69 6.73  
Snow  
Snow 0.00 in - - ()
Month to date snowfall T  
Since 1 July snowfall 0.7  
Snow Depth 0.00 in    
Sea Level Pressure  
Sea Level Pressure 30.12 in    
Wind  
Wind Speed 4 mph (West)    
Max Wind Speed 12 mph    
Max Gust Speed 15 mph    
Visibility 9 miles    
Events Rain    
T = Trace of Precipitation, MM = Missing Value Source: NWS Daily Summary

Daily Weather History Graph

Daily Weather History Graph

Search for Another Location

Airport or City:

Trip Planner

Search our weather history database for the weather conditions in past years. The results will help you decide how hot, cold, wet, or windy it might be!

Date:

Astronomy

Feb. 11, 2013 Rise Set
Actual Time 6:36 AM CST 5:26 PM CST
Civil Twilight 6:10 AM CST 5:52 PM CST
Nautical Twilight 5:40 AM CST 6:22 PM CST
Astronomical Twilight 5:11 AM CST 6:51 PM CST
Moon 7:06 AM CST (2/11) 7:15 PM CST (2/11)
Length of Visible Light 11h 42m
Length of Day
10h 50m
Waxing Crescent, 3% of the Moon is Illuminated
Feb 11
Waxing Crescent
Feb 17
First Quarter
Feb 25
Full
Mar 4
Last Quarter
Mar 11
New

Hourly Weather History & Observations

Time (CST) Temp. Dew Point Humidity Pressure Visibility Wind Dir Wind Speed Gust Speed Precip Events Conditions
12:49 AM 60.8 °F 57.2 °F 88% - 10.0 mi West 5.8 mph - 0.00 in   Overcast
12:53 AM 60.1 °F 57.9 °F 93% - 10.0 mi West 5.8 mph - 0.00 in   Overcast
1:27 AM 60.8 °F 59.0 °F 94% - 2.5 mi SW 6.9 mph - 0.02 in Rain Light Rain
1:34 AM 60.8 °F 59.0 °F 94% - 5.0 mi WSW 5.8 mph - 0.03 in Rain Light Rain
1:53 AM 60.1 °F 59.0 °F 96% - 10.0 mi SW 6.9 mph - 0.03 in Rain Light Rain
2:25 AM 59.0 °F 59.0 °F 100% - 10.0 mi SSW 5.8 mph - 0.00 in Rain Light Rain
2:51 AM 59.0 °F 57.2 °F 94% - 10.0 mi SSW 4.6 mph - 0.00 in   Overcast
2:53 AM 57.9 °F 57.9 °F 100% - 9.0 mi SSW 4.6 mph - 0.00 in   Overcast
3:33 AM 57.2 °F 57.2 °F 100% - 2.0 mi Calm Calm - N/A   Overcast
3:53 AM 57.9 °F 57.0 °F 97% - 9.0 mi West 4.6 mph - N/A   Overcast
4:53 AM 55.9 °F 54.0 °F 93% - 10.0 mi West 4.6 mph - N/A   Overcast
5:53 AM 57.0 °F 54.0 °F 89% 30.03 in 10.0 mi West 6.9 mph - N/A   Overcast
6:53 AM 55.9 °F 53.1 °F 90% 30.03 in 10.0 mi WNW 9.2 mph - N/A   Overcast
7:53 AM 55.4 °F 51.8 °F 88% 30.10 in 10.0 mi Calm Calm - N/A   Overcast
8:53 AM 55.0 °F 51.1 °F 86% 30.12 in 10.0 mi SW 3.5 mph - N/A   Overcast
9:53 AM 55.9 °F 50.0 °F 80% 30.13 in 10.0 mi WNW 5.8 mph - N/A   Overcast
10:53 AM 54.0 °F 43.0 °F 66% 30.15 in 10.0 mi West 6.9 mph - N/A   Overcast
11:53 AM 53.1 °F 41.0 °F 64% 30.14 in 10.0 mi WNW 5.8 mph - N/A   Overcast
12:53 PM 53.1 °F 42.1 °F 66% 30.15 in 10.0 mi WNW 6.9 mph - N/A   Overcast
1:53 PM 52.0 °F 37.9 °F 59% 30.14 in 10.0 mi West 6.9 mph - N/A   Mostly Cloudy
2:53 PM 53.1 °F 39.0 °F 59% 30.12 in 10.0 mi West 3.5 mph - N/A   Mostly Cloudy
3:53 PM 53.1 °F 39.0 °F 59% 30.11 in 10.0 mi WNW 3.5 mph - N/A   Mostly Cloudy
4:53 PM 52.0 °F 39.9 °F 63% 30.10 in 10.0 mi Calm Calm - N/A   Mostly Cloudy
5:53 PM 50.0 °F 41.0 °F 71% 30.12 in 10.0 mi WSW 4.6 mph - N/A   Mostly Cloudy
6:53 PM 50.0 °F 39.9 °F 68% 30.11 in 10.0 mi Calm Calm - N/A   Overcast
7:53 PM 48.0 °F 41.0 °F 77% 30.13 in 10.0 mi NNW 5.8 mph - N/A   Overcast
8:53 PM 46.9 °F 42.1 °F 83% 30.20 in 10.0 mi WNW 8.1 mph - N/A   Overcast
9:53 PM 45.0 °F 41.0 °F 86% 30.13 in 10.0 mi Calm Calm - N/A   Overcast
10:53 PM 46.0 °F 41.0 °F 83% 30.16 in 10.0 mi Calm Calm - N/A   Overcast
11:53 PM 45.0 °F 42.1 °F 90% 30.14 in 10.0 mi Calm Calm - N/A   Overcast